Albany, VT

9:30 AM EDT on July 29, 2016 (GMT -0400)
Newport State

Weather History for KEFK - November, 2011

Change the Weather History Date:

Saturday, November 12, 2011

  Actual Average Record
Temperature  
Mean Temperature 40 °F -  
Max Temperature 46 °F 41 °F 69 °F (2012)
Min Temperature 33 °F 29 °F 8 °F (1933)
Degree Days  
Heating Degree Days 26    
Moisture  
Dew Point 23 °F    
Average Humidity 51    
Maximum Humidity 60    
Minimum Humidity 37    
Precipitation  
Precipitation 0.00 in - - ()
Sea Level Pressure  
Sea Level Pressure 29.85 in    
Wind  
Wind Speed 10 mph (SSW)    
Max Wind Speed 15 mph    
Max Gust Speed 23 mph    
Visibility 10 miles    
Events      
Averages and records for this station are not official NWS values.
T = Trace of Precipitation, MM = Missing Value Source: NWS Daily Summary

Daily Weather History Graph

Daily Weather History Graph

Search for Another Location

Airport or City:

Trip Planner

Search our weather history database for the weather conditions in past years. The results will help you decide how hot, cold, wet, or windy it might be!

Date:

Astronomy

Nov. 12, 2011 Rise Set
Actual Time 6:41 AM EST 4:23 PM EST
Civil Twilight 6:10 AM EST 4:55 PM EST
Nautical Twilight 5:35 AM EST 5:30 PM EST
Astronomical Twilight 5:00 AM EST 6:04 PM EST
Moon 5:32 PM EST (11/12) 8:26 AM EST (11/12)
Length of Visible Light 10h 44m
Length of Day
9h 41m
Full, 97% of the Moon is Illuminated
Nov 12
Full
Nov 18
Last Quarter
Nov 25
New
Dec 2
First Quarter
Dec 10
Full

Hourly Weather History & Observations

Time (EST) Temp. Windchill Dew Point Humidity Pressure Visibility Wind Dir Wind Speed Gust Speed Precip Events Conditions
12:15 AM 33.8 °F 25.8 °F 21.2 °F 60% 29.76 in 10.0 mi West 10.4 mph 18.4 mph N/A   Overcast
12:35 AM 33.8 °F 25.8 °F 21.2 °F 60% 29.77 in 10.0 mi WSW 10.4 mph 18.4 mph N/A   Overcast
12:55 AM 35.6 °F 26.6 °F 19.4 °F 52% 29.79 in 10.0 mi WSW 13.8 mph 18.4 mph N/A   Overcast
1:15 AM 35.6 °F 26.6 °F 19.4 °F 52% 29.80 in 10.0 mi West 13.8 mph 23.0 mph N/A   Overcast
1:35 AM 35.6 °F 28.0 °F 19.4 °F 52% 29.80 in 10.0 mi West 10.4 mph 19.6 mph N/A   Overcast
1:55 AM 35.6 °F 28.6 °F 21.2 °F 56% 29.81 in 10.0 mi WSW 9.2 mph 19.6 mph N/A   Overcast
2:15 AM 35.6 °F 28.0 °F 21.2 °F 56% 29.81 in 10.0 mi WSW 10.4 mph - N/A   Overcast
2:35 AM 35.6 °F 27.1 °F 19.4 °F 52% 29.81 in 10.0 mi West 12.7 mph 20.7 mph N/A   Overcast
2:55 AM 35.6 °F 28.0 °F 21.2 °F 56% 29.82 in 10.0 mi WSW 10.4 mph 18.4 mph N/A   Overcast
3:15 AM 35.6 °F 28.0 °F 21.2 °F 56% 29.82 in 10.0 mi WSW 10.4 mph 17.3 mph N/A   Overcast
3:35 AM 35.6 °F 26.6 °F 21.2 °F 56% 29.83 in 10.0 mi SW 13.8 mph 18.4 mph N/A   Overcast
3:55 AM 33.8 °F 24.8 °F 19.4 °F 56% 29.83 in 10.0 mi WSW 12.7 mph - N/A   Scattered Clouds
4:15 AM 33.8 °F 27.7 °F 19.4 °F 56% 29.84 in 10.0 mi WSW 6.9 mph 18.4 mph N/A   Clear
4:35 AM 33.8 °F 25.8 °F 19.4 °F 56% 29.84 in 10.0 mi WSW 10.4 mph 18.4 mph N/A   Clear
4:55 AM 33.8 °F 27.0 °F 19.4 °F 56% 29.85 in 10.0 mi SSW 8.1 mph - N/A   Clear
5:15 AM 33.8 °F 27.0 °F 21.2 °F 60% 29.85 in 10.0 mi SSW 8.1 mph - N/A   Scattered Clouds
5:35 AM 33.8 °F 28.6 °F 19.4 °F 56% 29.85 in 10.0 mi SSW 5.8 mph - N/A   Mostly Cloudy
5:55 AM 35.6 °F 29.9 °F 19.4 °F 52% 29.85 in 10.0 mi South 6.9 mph - N/A   Overcast
6:15 AM 35.6 °F 29.9 °F 19.4 °F 52% 29.86 in 10.0 mi SSW 6.9 mph - N/A   Overcast
6:35 AM 35.6 °F 28.6 °F 21.2 °F 56% 29.86 in 10.0 mi South 9.2 mph - N/A   Overcast
6:55 AM 35.6 °F 28.6 °F 21.2 °F 56% 29.86 in 10.0 mi South 9.2 mph - N/A   Overcast
7:15 AM 35.6 °F 29.2 °F 21.2 °F 56% 29.86 in 10.0 mi South 8.1 mph - N/A   Mostly Cloudy
7:35 AM 35.6 °F 28.6 °F 21.2 °F 56% 29.86 in 10.0 mi SSW 9.2 mph - N/A   Mostly Cloudy
7:55 AM 35.6 °F 28.0 °F 21.2 °F 56% 29.86 in 10.0 mi SSW 10.4 mph - N/A   Clear
8:15 AM 37.4 °F 30.8 °F 21.2 °F 52% 29.87 in 10.0 mi South 9.2 mph 16.1 mph N/A   Scattered Clouds
8:35 AM 37.4 °F 29.3 °F 21.2 °F 52% 29.87 in 10.0 mi SSW 12.7 mph 19.6 mph N/A   Scattered Clouds
8:55 AM 37.4 °F 29.8 °F 23.0 °F 56% 29.87 in 10.0 mi SSW 11.5 mph 17.3 mph N/A   Overcast
9:15 AM 37.4 °F 30.8 °F 23.0 °F 56% 29.87 in 10.0 mi South 9.2 mph - N/A   Overcast
9:35 AM 41.0 °F 36.4 °F 24.8 °F 53% 29.87 in 10.0 mi SSW 6.9 mph - N/A   Overcast
9:55 AM 41.0 °F 35.8 °F 26.6 °F 57% 29.87 in 10.0 mi SSW 8.1 mph - N/A   Overcast
10:15 AM 41.0 °F 35.2 °F 26.6 °F 57% 29.86 in 10.0 mi South 9.2 mph - N/A   Mostly Cloudy
10:35 AM 42.8 °F 36.2 °F 26.6 °F 53% 29.85 in 10.0 mi South 12.7 mph 17.3 mph N/A   Scattered Clouds
10:55 AM 41.0 °F 35.2 °F 26.6 °F 57% 29.84 in 10.0 mi South 9.2 mph - N/A   Mostly Cloudy
11:15 AM 42.8 °F 37.0 °F 26.6 °F 53% 29.83 in 10.0 mi South 10.4 mph 17.3 mph N/A   Mostly Cloudy
11:35 AM 42.8 °F 37.5 °F 26.6 °F 53% 29.83 in 10.0 mi South 9.2 mph - N/A   Mostly Cloudy
11:55 AM 44.6 °F 39.2 °F 28.4 °F 53% 29.82 in 10.0 mi South 10.4 mph - N/A   Overcast
12:15 PM 44.6 °F 38.8 °F 26.6 °F 49% 29.82 in 10.0 mi SSW 11.5 mph 19.6 mph N/A   Overcast
12:35 PM 44.6 °F 37.8 °F 26.6 °F 49% 29.82 in 10.0 mi South 15.0 mph 21.9 mph N/A   Overcast
12:55 PM 44.6 °F 38.4 °F 26.6 °F 49% 29.82 in 10.0 mi South 12.7 mph 19.6 mph N/A   Mostly Cloudy
1:15 PM 46.4 °F 41.1 °F 26.6 °F 46% 29.82 in 10.0 mi South 11.5 mph 18.4 mph N/A   Overcast
1:35 PM 44.6 °F 39.2 °F 26.6 °F 49% 29.82 in 10.0 mi SSW 10.4 mph - N/A   Overcast
1:55 PM 46.4 °F 41.9 °F 26.6 °F 46% 29.82 in 10.0 mi SSW 9.2 mph - N/A   Overcast
2:15 PM 46.4 °F 42.4 °F 24.8 °F 43% 29.83 in 10.0 mi South 8.1 mph - N/A   Overcast
2:35 PM 46.4 °F 42.9 °F 23.0 °F 40% 29.82 in 10.0 mi South 6.9 mph - N/A   Overcast
2:55 PM 46.4 °F 41.5 °F 21.2 °F 37% 29.83 in 10.0 mi SSW 10.4 mph - N/A   Overcast
3:15 PM 46.4 °F 42.4 °F 21.2 °F 37% 29.84 in 10.0 mi South 8.1 mph - N/A   Overcast
3:35 PM 46.4 °F 42.9 °F 21.2 °F 37% 29.85 in 10.0 mi SSW 6.9 mph - N/A   Overcast
3:55 PM 46.4 °F 42.9 °F 23.0 °F 40% 29.86 in 10.0 mi South 6.9 mph - N/A   Overcast
4:15 PM 44.6 °F 42.2 °F 23.0 °F 43% 29.87 in 10.0 mi South 4.6 mph - N/A   Overcast
4:35 PM 46.4 °F 44.3 °F 23.0 °F 40% 29.88 in 10.0 mi South 4.6 mph - N/A   Overcast
4:55 PM 44.6 °F 41.4 °F 24.8 °F 46% 29.89 in 10.0 mi South 5.8 mph - N/A   Overcast
5:15 PM 44.6 °F 41.4 °F 24.8 °F 46% 29.89 in 10.0 mi South 5.8 mph - N/A   Overcast
5:35 PM 46.4 °F 42.9 °F 26.6 °F 46% 29.90 in 10.0 mi South 6.9 mph - N/A   Overcast
5:55 PM 46.4 °F 43.5 °F 26.6 °F 46% 29.90 in 10.0 mi South 5.8 mph - N/A   Overcast
6:15 PM 44.6 °F 42.2 °F 26.6 °F 49% 29.91 in 10.0 mi South 4.6 mph - N/A   Overcast
6:35 PM 44.6 °F 41.4 °F 26.6 °F 49% 29.92 in 10.0 mi SSE 5.8 mph - N/A   Overcast
6:55 PM 44.6 °F 43.1 °F 28.4 °F 53% 29.92 in 10.0 mi SSE 3.5 mph - N/A   Overcast
7:15 PM 44.6 °F 42.2 °F 28.4 °F 53% 29.93 in 10.0 mi South 4.6 mph - N/A   Overcast
7:35 PM 44.6 °F 43.1 °F 28.4 °F 53% 29.93 in 10.0 mi SSW 3.5 mph - N/A   Overcast
7:55 PM 46.4 °F 43.5 °F 28.4 °F 50% 29.95 in 10.0 mi SSW 5.8 mph - N/A   Overcast
8:15 PM 46.4 °F 44.3 °F 28.4 °F 50% 29.95 in 10.0 mi SSW 4.6 mph - N/A   Overcast
8:35 PM 46.4 °F 44.3 °F 28.4 °F 50% 29.96 in 10.0 mi South 4.6 mph - N/A   Overcast
8:55 PM 44.6 °F 42.2 °F 28.4 °F 53% 29.96 in 10.0 mi South 4.6 mph - N/A   Mostly Cloudy
9:15 PM 44.6 °F 42.2 °F 28.4 °F 53% 29.97 in 10.0 mi South 4.6 mph - N/A   Overcast
9:35 PM 44.6 °F 41.4 °F 28.4 °F 53% 29.97 in 10.0 mi South 5.8 mph - N/A   Overcast
9:55 PM 46.4 °F 42.4 °F 28.4 °F 50% 29.97 in 10.0 mi South 8.1 mph - N/A   Overcast
10:15 PM 46.4 °F 42.4 °F 28.4 °F 50% 29.98 in 10.0 mi South 8.1 mph - N/A   Overcast
10:35 PM 44.6 °F 41.4 °F 30.2 °F 57% 29.98 in 10.0 mi SSE 5.8 mph - N/A   Overcast
10:55 PM 46.4 °F 41.9 °F 28.4 °F 50% 29.98 in 10.0 mi SSE 9.2 mph - N/A   Overcast
11:15 PM 46.4 °F 41.9 °F 28.4 °F 50% 29.98 in 10.0 mi SSE 9.2 mph - N/A   Overcast
11:35 PM 44.6 °F 41.4 °F 28.4 °F 53% 29.99 in 10.0 mi South 5.8 mph - N/A   Overcast
11:55 PM 44.6 °F 42.2 °F 28.4 °F 53% 29.99 in 10.0 mi South 4.6 mph - N/A   Overcast